| time (UTC) | temp F | wind direction | speed knots | gust knots | rain 1hr in | rain 24hr in | rain mn in | humidity % | barometer mb |
| 20260506121832 | 52 | 274 | 0.0 | 1.7 | 0.00 | 0.00 | 0.00 | 91 | 1017.0 |
| 20260506120330 | 52 | 0 | 0.0 | 2.6 | 0.00 | 0.00 | 0.00 | 91 | 1016.8 |
| 20260506120002 | 52 | 0 | 0.9 | 2.6 | 0.00 | 0.00 | 0.00 | 91 | 1017.1 |
| 20260506114828 | 52 | 196 | 0.9 | 2.6 | 0.00 | 0.00 | 0.00 | 90 | 1016.7 |
| 20260506114503 | 52 | 226 | 0.9 | 2.6 | 0.00 | 0.00 | 0.00 | 90 | 1017.0 |
| 20260506113328 | 52 | 175 | 0.9 | 3.5 | 0.00 | 0.00 | 0.00 | 90 | 1016.4 |
| 20260506111829 | 52 | 0 | 1.7 | 5.2 | 0.00 | 0.00 | 0.00 | 90 | 1016.3 |
| 20260506111502 | 52 | 215 | 1.7 | 5.2 | 0.00 | 0.00 | 0.00 | 90 | 1016.6 |
| 20260506110325 | 52 | 206 | 1.7 | 4.3 | 0.00 | 0.00 | 0.00 | 90 | 1016.1 |
| 20260506104827 | 52 | 144 | 1.7 | 5.2 | 0.00 | 0.00 | 0.00 | 90 | 1016.0 |
| 20260506103327 | 52 | 217 | 2.6 | 5.2 | 0.00 | 0.00 | 0.00 | 89 | 1015.8 |
| 20260506101823 | 52 | 200 | 2.6 | 5.2 | 0.00 | 0.00 | 0.00 | 89 | 1015.7 |
| 20260506101502 | 52 | 189 | 2.6 | 5.2 | 0.00 | 0.00 | 0.00 | 89 | 1016.0 |
| 20260506100323 | 52 | 117 | 2.6 | 5.2 | 0.00 | 0.00 | 0.00 | 89 | 1015.4 |
| 20260506094820 | 53 | 174 | 1.7 | 5.2 | 0.00 | 0.00 | 0.00 | 88 | 1015.3 |
| 20260506094503 | 53 | 238 | 1.7 | 3.5 | 0.00 | 0.00 | 0.00 | 88 | 1015.6 |
| 20260506093321 | 53 | 17 | 0.9 | 3.5 | 0.00 | 0.00 | 0.00 | 88 | 1015.2 |
| 20260506093002 | 53 | 29 | 0.9 | 3.5 | 0.00 | 0.00 | 0.00 | 89 | 1015.5 |
| 20260506091820 | 53 | 307 | 1.7 | 4.3 | 0.00 | 0.00 | 0.00 | 89 | 1015.2 |
| 20260506090320 | 53 | 266 | 1.7 | 5.2 | 0.00 | 0.00 | 0.00 | 88 | 1015.1 |
| 20260506084816 | 53 | 166 | 1.7 | 5.2 | 0.00 | 0.00 | 0.00 | 86 | 1015.1 |
| 20260506084502 | 54 | 191 | 1.7 | 5.2 | 0.00 | 0.00 | 0.00 | 86 | 1015.4 |
| 20260506083316 | 54 | 211 | 1.7 | 4.3 | 0.00 | 0.00 | 0.00 | 85 | 1015.1 |
| 20260506081816 | 54 | 226 | 0.9 | 3.5 | 0.00 | 0.00 | 0.00 | 86 | 1015.0 |
| 20260506081502 | 54 | 293 | 0.9 | 2.6 | 0.00 | 0.00 | 0.00 | 86 | 1015.3 |
| 20260506080317 | 54 | 290 | 0.9 | 3.5 | 0.00 | 0.00 | 0.00 | 87 | 1014.9 |
| 20260506073317 | 54 | 0 | 0.9 | 2.6 | 0.00 | 0.00 | 0.00 | 85 | 1014.7 |
| 20260506071817 | 54 | 192 | 0.0 | 1.7 | 0.00 | 0.00 | 0.00 | 85 | 1014.6 |
| 20260506071502 | 55 | 295 | 0.0 | 1.7 | 0.00 | 0.00 | 0.00 | 85 | 1014.9 |
| 20260506070316 | 55 | 0 | 0.0 | 2.6 | 0.00 | 0.00 | 0.00 | 85 | 1014.6 |
| 20260506061814 | 55 | 342 | 0.9 | 3.5 | 0.00 | 0.00 | 0.00 | 84 | 1014.2 |
| 20260506060314 | 56 | 158 | 1.7 | 4.3 | 0.00 | 0.00 | 0.00 | 81 | 1014.0 |
| 20260506050309 | 58 | 217 | 1.7 | 5.2 | 0.00 | 0.00 | 0.00 | 73 | 1013.8 |
| 20260506044811 | 58 | 276 | 1.7 | 5.2 | 0.00 | 0.00 | 0.00 | 72 | 1013.9 |
| 20260506044502 | 58 | 332 | 1.7 | 5.2 | 0.00 | 0.00 | 0.00 | 72 | 1014.1 |
| 20260506043311 | 59 | 108 | 1.7 | 6.1 | 0.00 | 0.00 | 0.00 | 73 | 1013.6 |
| 20260506041811 | 60 | 227 | 1.7 | 6.1 | 0.00 | 0.00 | 0.00 | 74 | 1013.6 |
| 20260506041538 | 60 | 0 | 1.7 | 6.1 | 0.00 | 0.00 | 0.00 | 73 | 1013.9 |
| 20260506041503 | 60 | 0 | 1.7 | 6.1 | 0.00 | 0.00 | 0.00 | 73 | 1013.9 |
| 20260506040309 | 60 | 265 | 1.7 | 6.1 | 0.00 | 0.00 | 0.00 | 71 | 1013.5 |
| 20260506040003 | 60 | 198 | 1.7 | 6.1 | 0.00 | 0.00 | 0.00 | 72 | 1013.7 |
| 20260506034806 | 60 | 21 | 1.7 | 5.2 | 0.00 | 0.00 | 0.00 | 72 | 1013.2 |
| 20260506034502 | 60 | 73 | 1.7 | 5.2 | 0.00 | 0.00 | 0.00 | 72 | 1013.5 |
| 20260506033302 | 60 | 257 | 2.6 | 6.1 | 0.00 | 0.00 | 0.00 | 73 | 1013.1 |
| 20260506033002 | 60 | 56 | 1.7 | 6.1 | 0.00 | 0.00 | 0.00 | 72 | 1013.4 |
| 20260506031804 | 62 | 307 | 1.7 | 5.2 | 0.00 | 0.00 | 0.00 | 68 | 1013.1 |
| 20260506031502 | 62 | 184 | 1.7 | 5.2 | 0.00 | 0.00 | 0.00 | 68 | 1013.3 |
| 20260506030300 | 62 | 167 | 1.7 | 5.2 | 0.00 | 0.00 | 0.00 | 67 | 1013.1 |
| 20260506030002 | 62 | 112 | 1.7 | 5.2 | 0.00 | 0.00 | 0.00 | 67 | 1013.4 |
| 20260506024800 | 62 | 171 | 1.7 | 6.1 | 0.00 | 0.00 | 0.00 | 69 | 1013.0 |
| 20260506023258 | 63 | 328 | 1.7 | 6.1 | 0.00 | 0.00 | 0.00 | 69 | 1013.0 |
| 20260506023002 | 63 | 33 | 1.7 | 6.1 | 0.00 | 0.00 | 0.00 | 68 | 1013.3 |
| 20260506021758 | 65 | 266 | 2.6 | 6.1 | 0.00 | 0.00 | 0.00 | 66 | 1013.1 |
| 20260506021502 | 65 | 311 | 2.6 | 6.1 | 0.00 | 0.00 | 0.00 | 65 | 1013.5 |
| 20260506020255 | 65 | 19 | 1.7 | 5.2 | 0.00 | 0.00 | 0.00 | 65 | 1013.1 |
| 20260506014758 | 66 | 270 | 1.7 | 6.1 | 0.00 | 0.00 | 0.00 | 64 | 1013.1 |
| 20260506014502 | 66 | 259 | 1.7 | 6.1 | 0.00 | 0.00 | 0.00 | 63 | 1013.5 |
| 20260506013255 | 66 | 20 | 2.6 | 6.1 | 0.00 | 0.00 | 0.00 | 63 | 1013.3 |
| 20260506013002 | 66 | 262 | 2.6 | 6.1 | 0.00 | 0.00 | 0.00 | 63 | 1013.5 |
| 20260506011756 | 66 | 312 | 1.7 | 6.1 | 0.00 | 0.00 | 0.00 | 63 | 1013.3 |
| 20260506010254 | 66 | 179 | 2.6 | 8.7 | 0.00 | 0.00 | 0.00 | 64 | 1013.2 |
| 20260506004755 | 66 | 213 | 2.6 | 6.1 | 0.00 | 0.00 | 0.00 | 62 | 1013.3 |
| 20260506004503 | 66 | 149 | 2.6 | 6.1 | 0.00 | 0.00 | 0.00 | 62 | 1013.6 |
| 20260506003253 | 67 | 314 | 2.6 | 6.1 | 0.00 | 0.00 | 0.00 | 61 | 1013.4 |
| 20260506001755 | 66 | 281 | 1.7 | 6.1 | 0.00 | 0.00 | 0.00 | 61 | 1013.6 |
| 20260506000255 | 67 | 119 | 2.6 | 8.7 | 0.00 | 0.00 | 0.00 | 60 | 1013.8 |
| 20260505234752 | 66 | 139 | 2.6 | 7.0 | 0.00 | 0.00 | 0.00 | 60 | 1013.9 |
| 20260505234502 | 66 | 0 | 2.6 | 7.0 | 0.00 | 0.00 | 0.00 | 61 | 1014.1 |
| 20260505233251 | 66 | 203 | 2.6 | 7.0 | 0.00 | 0.00 | 0.00 | 60 | 1014.0 |
| 20260505231753 | 66 | 319 | 2.6 | 5.2 | 0.00 | 0.00 | 0.00 | 60 | 1014.1 |
| 20260505231503 | 66 | 241 | 2.6 | 5.2 | 0.00 | 0.00 | 0.00 | 62 | 1014.5 |
| 20260505230249 | 65 | 209 | 1.7 | 5.2 | 0.00 | 0.00 | 0.00 | 67 | 1014.4 |
| 20260505230002 | 65 | 232 | 1.7 | 5.2 | 0.00 | 0.00 | 0.00 | 66 | 1014.8 |
| 20260505224749 | 63 | 300 | 1.7 | 4.3 | 0.00 | 0.00 | 0.00 | 70 | 1014.5 |
| 20260505223250 | 61 | 346 | 1.7 | 5.2 | 0.00 | 0.00 | 0.00 | 74 | 1014.6 |
| 20260505221750 | 60 | 1 | 1.7 | 7.0 | 0.00 | 0.00 | 0.00 | 76 | 1014.9 |
| 20260505221503 | 60 | 189 | 2.6 | 7.0 | 0.00 | 0.00 | 0.00 | 76 | 1015.3 |
| 20260505220247 | 59 | 183 | 1.7 | 7.0 | 0.00 | 0.00 | 0.00 | 78 | 1014.8 |
| 20260505214748 | 58 | 184 | 2.6 | 7.0 | 0.00 | 0.00 | 0.00 | 79 | 1014.8 |
| 20260505214503 | 58 | 287 | 2.6 | 7.0 | 0.00 | 0.00 | 0.00 | 80 | 1015.1 |
| 20260505213248 | 57 | 214 | 2.6 | 6.1 | 0.00 | 0.00 | 0.00 | 81 | 1015.0 |
| 20260505213003 | 57 | 269 | 2.6 | 5.2 | 0.00 | 0.00 | 0.00 | 82 | 1015.2 |
| 20260505211748 | 56 | 184 | 2.6 | 7.8 | 0.00 | 0.00 | 0.00 | 84 | 1014.9 |
| 20260505211502 | 56 | 9 | 2.6 | 7.8 | 0.00 | 0.00 | 0.00 | 83 | 1015.4 |
| 20260505210245 | 56 | 214 | 2.6 | 6.1 | 0.00 | 0.00 | 0.00 | 85 | 1015.0 |
| 20260505210003 | 56 | 191 | 2.6 | 5.2 | 0.00 | 0.00 | 0.00 | 84 | 1015.4 |
| 20260505204746 | 55 | 232 | 2.6 | 7.8 | 0.00 | 0.00 | 0.00 | 86 | 1015.1 |
| 20260505204502 | 55 | 229 | 2.6 | 6.1 | 0.00 | 0.00 | 0.00 | 86 | 1015.5 |
| 20260505203243 | 55 | 181 | 2.6 | 7.0 | 0.00 | 0.00 | 0.00 | 86 | 1015.3 |
| 20260505203002 | 55 | 189 | 2.6 | 7.0 | 0.00 | 0.00 | 0.00 | 87 | 1015.6 |
| 20260505201743 | 55 | 274 | 3.5 | 7.0 | 0.00 | 0.00 | 0.00 | 88 | 1015.4 |
| 20260505201503 | 55 | 302 | 2.6 | 7.0 | 0.00 | 0.00 | 0.00 | 87 | 1015.7 |
| 20260505200245 | 55 | 276 | 2.6 | 7.0 | 0.00 | 0.00 | 0.00 | 87 | 1015.3 |
| 20260505200002 | 55 | 260 | 2.6 | 6.1 | 0.00 | 0.00 | 0.00 | 88 | 1015.6 |
| 20260505194740 | 55 | 201 | 3.5 | 7.8 | 0.00 | 0.00 | 0.00 | 88 | 1015.3 |
| 20260505194502 | 55 | 189 | 3.5 | 7.8 | 0.00 | 0.00 | 0.00 | 87 | 1015.6 |
| 20260505193240 | 55 | 238 | 3.5 | 7.8 | 0.00 | 0.00 | 0.00 | 87 | 1015.3 |
| 20260505191740 | 55 | 148 | 3.5 | 7.8 | 0.00 | 0.00 | 0.00 | 87 | 1015.4 |
| 20260505191502 | 55 | 199 | 3.5 | 7.0 | 0.00 | 0.00 | 0.00 | 87 | 1015.7 |
| 20260505190239 | 55 | 181 | 2.6 | 7.0 | 0.00 | 0.00 | 0.00 | 88 | 1015.4 |
| 20260505190003 | 54 | 187 | 2.6 | 7.0 | 0.00 | 0.00 | 0.00 | 88 | 1015.8 |
| 20260505184738 | 54 | 210 | 3.5 | 7.8 | 0.00 | 0.00 | 0.00 | 89 | 1015.4 |
| 20260505183240 | 55 | 234 | 2.6 | 5.2 | 0.00 | 0.00 | 0.00 | 85 | 1015.3 |
| 20260505181739 | 55 | 213 | 2.6 | 7.0 | 0.00 | 0.00 | 0.00 | 87 | 1015.2 |
| 20260505181503 | 54 | 55 | 2.6 | 7.0 | 0.00 | 0.00 | 0.00 | 87 | 1015.6 |
| 20260505180237 | 54 | 279 | 2.6 | 7.0 | 0.00 | 0.00 | 0.00 | 88 | 1015.1 |
| 20260505180002 | 54 | 274 | 2.6 | 7.0 | 0.00 | 0.00 | 0.00 | 88 | 1015.5 |
| 20260505174735 | 54 | 219 | 2.6 | 7.0 | 0.00 | 0.00 | 0.00 | 89 | 1015.1 |
| 20260505174503 | 54 | 245 | 2.6 | 7.0 | 0.00 | 0.00 | 0.00 | 89 | 1015.4 |
| 20260505173232 | 54 | 162 | 2.6 | 6.1 | 0.00 | 0.00 | 0.00 | 89 | 1015.0 |
| 20260505171730 | 54 | 212 | 2.6 | 5.2 | 0.00 | 0.00 | 0.00 | 89 | 1014.9 |
| 20260505171502 | 54 | 264 | 1.7 | 5.2 | 0.00 | 0.00 | 0.00 | 89 | 1015.2 |
| 20260505170231 | 53 | 243 | 2.6 | 6.1 | 0.00 | 0.00 | 0.00 | 89 | 1014.8 |
| 20260505170002 | 53 | 158 | 2.6 | 6.1 | 0.00 | 0.00 | 0.00 | 89 | 1015.2 |
| 20260505164732 | 53 | 223 | 2.6 | 7.0 | 0.00 | 0.00 | 0.00 | 90 | 1014.9 |
| 20260505164503 | 53 | 236 | 2.6 | 7.0 | 0.00 | 0.00 | 0.00 | 90 | 1015.1 |
| 20260505163231 | 53 | 174 | 2.6 | 6.1 | 0.00 | 0.00 | 0.00 | 90 | 1014.7 |
| 20260505163002 | 53 | 201 | 2.6 | 6.1 | 0.00 | 0.00 | 0.00 | 90 | 1015.1 |
| 20260505161732 | 53 | 228 | 2.6 | 5.2 | 0.00 | 0.00 | 0.00 | 90 | 1014.6 |
| 20260505161503 | 53 | 234 | 2.6 | 5.2 | 0.00 | 0.00 | 0.00 | 90 | 1015.0 |
| 20260505160232 | 53 | 266 | 1.7 | 4.3 | 0.00 | 0.00 | 0.00 | 90 | 1014.7 |
| 20260505153226 | 54 | 261 | 1.7 | 5.2 | 0.00 | 0.00 | 0.00 | 87 | 1014.3 |
| 20260505151728 | 54 | 263 | 1.7 | 5.2 | 0.00 | 0.00 | 0.00 | 87 | 1014.3 |
| 20260505150226 | 54 | 271 | 1.7 | 5.2 | 0.00 | 0.00 | 0.00 | 88 | 1014.1 |
| 20260505140222 | 53 | 249 | 1.7 | 5.2 | 0.00 | 0.00 | 0.00 | 90 | 1013.2 |
| 20260505130223 | 54 | 39 | 1.7 | 6.1 | 0.00 | 0.00 | 0.00 | 85 | 1012.5 |
| 20260505124720 | 54 | 259 | 1.7 | 5.2 | 0.00 | 0.00 | 0.00 | 84 | 1012.3 |
| 20260505124502 | 54 | 290 | 1.7 | 5.2 | 0.00 | 0.00 | 0.00 | 83 | 1012.6 |
| 20260505123220 | 55 | 219 | 1.7 | 5.2 | 0.00 | 0.00 | 0.00 | 82 | 1012.2 |
| 20260505123003 | 55 | 356 | 1.7 | 5.2 | 0.00 | 0.00 | 0.00 | 82 | 1012.5 |